Theta_e
351 354 358 359 360 360 361 361 361 361 360 360 360 361 363 364 362 363 363 365 365 365 365 365 364 362 362 361 362 362 361 364 361 362 360 356 355 358 358 357 356 348 357
352 354 361 361 360 359 359 359 359 361 361 360 359 358 360 362 364 363 363 364 364 364 363 364 363 362 362 361 361 361 360 360 364 362 360 352 354 357 355 356 359 356 357
350 353 358 363 361 361 360 358 360 363 360 359 359 357 356 358 360 361 362 363 363 364 363 363 363 362 362 362 361 360 359 359 360 360 364 349 348 356 359 359 358 358 357
350 351 354 362 362 362 361 359 360 362 360 361 361 358 360 360 357 359 362 362 363 363 362 362 363 363 363 362 361 358 359 357 356 360 352 352 349 358 357 357 358 357 356
349 351 359 362 362 361 361 361 361 360 359 361 361 359 358 360 359 360 360 361 362 362 362 361 361 362 363 362 361 358 355 353 355 358 354 352 349 356 357 359 359 358 357
350 354 360 361 362 362 362 362 360 361 359 360 360 359 359 360 359 359 360 361 361 361 362 361 359 362 361 361 359 357 355 354 361 353 353 350 346 356 359 359 358 358 357
350 354 358 362 362 362 363 362 360 360 360 360 359 360 359 360 360 359 359 360 360 361 360 360 359 361 361 361 360 358 356 360 354 355 349 344 352 359 359 358 357 358 358
350 352 356 361 362 362 362 360 361 360 360 360 359 359 359 359 359 359 360 360 360 360 360 361 361 362 361 361 359 356 356 361 355 352 345 352 357 358 358 357 358 356 356
350 353 356 358 361 362 360 361 361 361 360 359 359 358 358 360 360 359 359 359 359 360 361 361 361 361 361 361 359 356 357 359 347 351 345 354 359 358 357 356 356 357 356
351 352 355 358 360 358 361 361 360 360 359 359 359 358 359 358 359 358 361 360 359 359 361 361 360 361 362 361 358 355 357 360 350 349 348 356 360 358 353 355 358 355 354
347 350 350 353 356 360 358 361 361 361 359 360 359 359 359 356 357 356 360 359 359 360 360 360 360 362 361 360 357 358 358 351 349 348 350 359 360 355 353 354 354 352 355
346 348 350 352 354 358 354 362 361 358 361 360 359 361 365 358 358 354 358 358 359 360 359 359 360 362 363 353 353 358 353 348 349 350 355 360 358 354 356 357 358 353 352
346 346 354 355 358 356 356 355 355 357 356 358 360 362 368 354 359 354 356 354 355 359 353 354 355 356 355 349 347 345 348 346 347 349 356 359 356 353 357 355 354 356 353
347 348 353 355 359 360 355 355 356 353 354 351 354 358 357 355 360 355 354 351 353 356 355 356 356 356 355 350 349 345 345 345 347 351 357 358 356 353 353 355 354 353 352
346 348 352 356 359 361 358 356 355 354 355 352 354 356 357 355 358 359 357 353 352 353 354 361 355 355 357 350 349 348 345 347 349 350 351 357 355 355 356 353 353 352 351
347 348 352 356 359 359 360 364 362 359 356 357 356 355 357 354 358 352 352 354 351 359 353 359 358 355 359 349 348 348 347 348 351 350 350 352 356 356 353 355 354 353 352
346 349 351 353 356 359 358 358 360 359 358 359 357 362 361 362 359 360 356 358 352 358 359 357 358 357 348 348 349 348 345 348 350 352 353 353 353 357 355 354 354 354 354
347 350 352 350 354 356 357 357 354 357 361 358 358 357 360 362 361 362 355 359 356 355 353 355 357 352 350 351 347 348 348 350 352 353 352 354 353 355 356 356 355 356 356
347 351 350 352 352 355 359 358 356 364 362 359 359 358 361 360 360 363 359 359 363 351 352 356 354 351 348 346 345 347 350 349 350 350 353 353 352 352 355 359 358 356 356
347 352 352 351 356 358 358 359 355 354 360 364 362 359 361 361 360 360 357 360 361 352 352 356 357 353 356 348 341 346 348 349 350 349 350 351 351 353 353 358 359 358 360
345 350 351 352 359 356 354 350 351 352 361 364 361 364 363 361 362 366 360 359 360 358 358 358 353 355 352 351 349 345 347 349 350 349 350 349 350 352 352 356 357 356 357
344 348 352 354 359 358 354 357 354 356 356 357 358 362 362 361 363 361 365 358 362 355 360 358 358 354 349 351 345 344 342 341 346 347 348 347 347 350 350 356 356 359 358
344 346 351 356 359 361 363 361 359 362 358 356 363 358 360 362 361 363 364 366 361 362 354 359 357 357 352 349 355 347 342 336 338 343 346 345 346 347 349 351 352 356 358
344 346 350 355 359 361 363 364 362 356 350 354 357 359 360 362 361 361 363 363 363 359 365 359 355 361 351 346 346 347 352 349 344 336 341 345 347 348 351 350 350 353 357
346 343 348 355 359 364 365 365 359 359 353 356 358 360 360 368 364 361 362 363 363 361 364 362 364 363 351 353 349 344 351 347 347 344 336 340 344 346 349 350 350 350 355
346 347 346 354 361 363 362 363 364 360 360 359 356 356 356 359 360 363 362 363 364 363 361 360 362 363 367 361 354 349 351 343 343 340 340 342 343 346 349 351 352 353 355
Wind_Speed
16 15 12 12 13 13 13 13 12 12 12 12 12 12 12 11 13 13 13 14 14 13 14 15 15 16 16 16 16 17 16 15 16 19 18 19 16 17 15 10 17 17 16
22 17 13 13 14 13 12 12 12 11 12 12 12 11 10 11 12 13 12 14 14 14 14 15 15 15 16 16 15 15 15 12 14 19 21 19 17 17 18 21 16 16 16
21 18 15 13 13 13 12 12 11 11 13 12 12 10 10 9 10 10 11 13 13 13 14 14 15 15 16 16 16 14 12 7 7 13 17 14 15 17 16 15 16 16 16
21 18 16 12 13 11 12 12 10 12 11 10 11 11 9 10 9 10 10 12 13 12 13 13 14 15 16 15 15 12 9 3 3 11 4 15 15 14 16 15 15 12 16
19 18 16 13 13 12 12 11 11 10 11 10 11 10 10 10 10 10 11 12 13 12 13 13 12 14 15 15 14 9 4 3 6 18 11 11 13 13 14 13 15 16 18
19 19 15 13 12 11 11 11 10 10 10 10 11 10 9 11 10 11 11 11 12 11 12 12 12 12 13 14 12 7 4 6 1 13 14 16 13 14 15 16 16 14 16
19 18 15 12 11 11 11 10 10 11 10 9 10 11 9 11 11 11 11 12 11 11 11 11 11 13 14 13 10 6 3 8 15 4 14 13 12 13 15 14 15 14 14
18 18 15 12 10 10 10 10 10 11 10 11 10 10 10 10 11 10 12 11 12 11 11 11 13 14 14 13 9 3 4 11 15 9 14 11 10 13 14 13 14 14 13
17 17 14 14 11 10 10 10 10 11 10 11 10 10 10 10 11 10 12 12 11 11 12 14 14 14 14 11 8 2 4 6 9 6 13 10 11 13 13 13 13 13 13
16 15 12 13 13 12 12 11 10 9 10 10 10 10 11 12 11 10 12 11 10 11 13 13 13 13 13 11 7 4 7 9 10 12 11 8 12 13 12 12 13 13 11
12 17 12 13 11 8 12 11 10 11 10 10 10 9 11 8 11 11 13 10 10 10 12 11 12 14 14 12 7 9 10 2 9 11 9 7 10 11 11 11 11 10 11
14 12 12 13 9 11 10 11 7 11 6 4 6 7 2 7 9 13 11 9 9 9 8 8 10 15 15 9 6 10 6 5 6 12 8 8 9 9 9 9 10 10 9
13 10 22 8 13 8 8 9 5 5 8 7 6 2 2 6 4 5 8 8 7 10 7 9 5 4 4 4 6 7 2 6 7 9 9 8 7 8 8 8 8 7 7
11 10 19 12 7 5 8 6 4 6 4 8 8 7 4 4 5 3 0 8 5 5 3 3 4 5 5 4 7 6 4 4 6 9 9 8 6 6 6 6 6 5 5
11 10 13 12 6 3 6 11 4 6 1 8 7 6 4 5 3 1 3 4 5 7 5 2 5 2 4 7 5 5 7 6 2 8 7 9 6 5 4 5 4 3 2
11 12 13 14 9 6 6 7 4 4 4 3 5 7 2 4 3 6 4 6 4 3 6 4 5 4 2 8 6 5 5 5 6 4 10 8 9 6 5 3 2 0 1
12 13 13 12 11 9 10 6 5 8 4 2 7 7 4 4 1 4 2 1 5 6 3 4 4 2 5 6 5 4 6 3 6 3 1 9 10 11 9 6 4 2 2
13 12 12 11 12 9 10 6 6 7 6 3 5 7 8 4 2 3 3 3 7 5 4 4 2 4 5 5 4 5 4 7 5 4 4 3 2 8 11 10 7 6 6
12 13 12 10 12 10 9 7 5 9 4 2 3 7 8 5 4 4 3 5 4 4 4 4 3 2 1 5 6 4 2 4 6 6 6 4 6 4 6 12 12 11 9
13 13 11 9 12 9 9 5 5 6 5 4 2 10 8 5 5 3 5 5 7 5 4 4 1 4 4 4 2 5 3 3 3 5 6 8 6 2 4 5 7 10 13
14 13 12 10 11 9 9 8 6 7 5 1 0 6 5 5 7 5 3 5 6 3 6 4 4 3 3 2 7 6 6 6 6 4 5 0 7 6 5 3 4 2 8
14 14 13 12 12 10 8 7 5 4 5 5 6 6 5 5 6 5 7 7 4 6 4 4 1 2 3 8 4 1 3 4 7 2 3 2 2 1 4 6 2 3 3
15 15 14 13 13 11 8 3 3 2 5 6 5 7 5 6 7 4 4 4 4 2 8 5 5 2 4 2 4 3 2 4 5 6 5 4 2 4 2 5 3 4 3
16 15 15 14 14 12 9 9 7 7 7 3 7 3 8 6 6 6 5 4 5 3 6 6 5 2 5 2 2 2 4 5 4 5 6 5 6 6 2 6 6 6 4
16 16 15 15 13 12 11 8 9 10 9 6 5 8 5 6 5 7 6 5 5 6 6 5 5 4 2 4 4 2 2 1 2 7 5 5 5 3 6 4 3 2 5
17 17 16 15 13 12 13 12 8 5 7 1 10 6 5 6 9 7 7 6 5 1 5 4 4 4 4 5 6 4 2 3 4 3 1 1 2 3 2 3 1 1 1
Wind_Direction
141 127 132 131 115 109 110 108 105 99 92 87 83 78 74 78 84 76 77 72 81 77 74 75 76 77 80 84 82 83 90 94 95 93 90 80 75 69 71 88 86 81 76
125 135 144 124 123 118 112 108 105 103 96 88 83 82 81 74 75 83 79 84 83 76 78 78 77 82 86 85 85 89 88 100 113 109 105 89 75 72 70 65 66 74 76
131 130 141 129 124 120 109 106 104 94 92 93 91 89 94 90 85 84 83 84 88 82 86 86 82 85 87 89 91 84 89 96 127 130 109 89 80 76 74 76 77 72 71
132 147 134 128 130 121 116 110 105 94 93 92 87 87 85 99 92 90 87 84 85 85 85 87 84 89 88 91 88 79 80 81 285 172 161 94 88 79 80 81 80 80 84
141 128 118 129 127 125 120 111 103 101 98 93 88 86 87 87 100 93 92 89 86 89 90 91 88 94 93 94 92 89 74 3 314 77 77 72 78 78 70 78 86 70 60
138 119 127 125 125 128 121 113 106 106 98 90 87 89 89 97 98 104 95 95 94 95 92 90 91 97 97 96 96 93 32 318 254 55 103 75 65 75 71 70 74 74 71
131 122 131 130 127 119 116 109 107 103 101 100 94 90 89 91 95 94 100 98 97 94 89 85 92 110 99 95 95 83 339 1 85 94 74 80 82 76 74 79 71 71 70
124 140 133 133 128 123 118 111 108 105 98 89 90 91 100 98 104 112 110 108 102 95 88 84 97 106 101 99 96 78 338 320 103 88 83 84 83 81 81 78 76 67 69
137 117 139 138 132 126 120 112 111 104 101 96 96 100 103 103 105 104 105 101 100 96 87 98 98 106 102 105 103 136 267 283 89 73 105 92 93 85 78 77 77 69 70
126 118 145 137 148 157 142 119 117 117 103 109 111 109 119 118 117 113 124 104 100 95 92 99 103 103 109 110 136 212 265 273 112 102 80 80 89 84 82 77 77 73 77
138 150 130 153 114 125 132 122 134 124 126 126 131 132 174 131 132 130 79 105 101 97 91 104 121 128 130 131 175 215 244 4 108 85 87 90 91 85 88 86 82 77 66
137 167 139 106 139 175 136 162 147 121 131 157 132 171 234 89 56 88 101 113 112 114 116 142 160 162 181 147 169 217 213 114 87 84 82 94 102 93 91 83 85 76 70
157 158 108 133 186 118 117 149 150 191 138 120 142 150 69 121 96 110 140 147 147 187 159 183 176 217 31 57 62 56 147 145 113 91 100 115 99 99 93 84 81 83 72
160 142 121 135 82 306 152 145 186 112 170 138 100 129 142 159 196 91 251 89 199 107 65 40 93 43 122 100 36 90 78 61 80 99 113 123 112 105 99 90 84 65 59
159 138 121 123 156 103 214 88 77 135 116 114 158 132 151 99 135 154 115 121 99 150 142 161 103 105 57 92 92 60 74 65 37 115 114 141 135 122 120 97 90 72 43
164 149 131 134 157 175 92 97 119 67 147 122 87 106 118 125 141 127 155 150 125 65 77 62 55 154 170 113 101 81 72 117 39 340 129 149 156 157 160 153 151 114 332
177 149 143 153 152 164 126 168 147 188 93 14 126 126 53 89 130 117 191 168 111 81 108 130 183 210 121 98 100 114 111 132 116 102 314 143 157 182 177 181 188 217 262
173 159 158 164 147 165 140 181 185 117 106 184 147 147 144 145 178 235 171 297 105 173 170 148 203 192 202 104 70 115 100 123 126 163 118 296 39 152 174 182 190 212 235
161 165 168 160 155 165 149 183 181 101 170 109 191 115 130 151 162 261 176 120 197 163 198 165 142 205 221 130 146 130 137 138 204 116 129 279 129 245 141 176 190 204 218
154 162 176 173 142 169 163 172 168 160 145 242 164 129 134 163 150 207 125 148 237 181 157 61 40 80 261 31 140 87 129 138 164 173 144 214 109 255 115 132 208 191 205
162 163 171 176 148 179 169 186 169 148 118 360 138 116 121 141 147 179 239 171 234 179 77 138 151 224 277 350 1 162 166 184 192 210 208 29 115 211 101 154 236 356 175
168 168 170 172 159 196 175 206 196 124 185 178 114 136 175 166 149 180 226 176 235 118 144 182 23 325 212 103 229 145 322 209 195 317 94 317 23 197 167 170 111 168 258
172 175 174 176 167 199 195 181 184 4 169 170 140 157 172 170 166 184 242 55 185 186 164 185 222 228 326 120 352 314 7 246 146 162 171 202 84 247 350 151 181 148 177
168 179 171 178 175 187 211 159 161 217 209 162 172 140 143 159 184 179 190 163 229 137 160 182 189 64 234 158 183 101 347 5 328 136 140 145 193 204 120 250 138 146 187
168 172 172 177 181 183 194 253 171 244 116 238 72 146 126 137 203 185 179 188 212 245 129 187 110 268 196 266 150 181 349 233 339 336 123 137 146 151 160 230 51 155 181
174 170 171 176 183 194 190 202 233 221 277 246 139 169 183 176 182 180 189 187 200 214 161 177 179 241 316 336 337 308 254 54 231 273 83 161 9 122 141 133 142 101 23